St. Petersburg, FL

3:28 AM EDT on October 17, 2017 (GMT -0400)
Whitted

Weather History for KSPG - May, 2012

Change the Weather History Date:

Sunday, May 13, 2012

  Actual Average Record
Temperature  
Mean Temperature 78 °F -  
Max Temperature 88 °F 86 °F 92 °F (1962)
Min Temperature 73 °F 70 °F 56 °F (1952)
Cooling Degree Days 14    
Growing Degree Days 28 (Base 50)    
Moisture  
Dew Point 67 °F    
Average Humidity 69    
Maximum Humidity 79    
Minimum Humidity 53    
Precipitation  
Precipitation 0.00 in - - ()
Sea Level Pressure  
Sea Level Pressure 30.08 in    
Wind  
Wind Speed 13 mph (East)    
Max Wind Speed 18 mph    
Max Gust Speed -    
Visibility 10 miles    
Events      
Averages and records for this station are not official NWS values.
T = Trace of Precipitation, MM = Missing Value Source: NWS Daily Summary

Daily Weather History Graph

Daily Weather History Graph

Search for Another Location

Airport or City:

Trip Planner

Search our weather history database for the weather conditions in past years. The results will help you decide how hot, cold, wet, or windy it might be!

Date:

Astronomy

May. 13, 2012 Rise Set
Actual Time 6:42 AM EDT 8:11 PM EDT
Civil Twilight 6:16 AM EDT 8:37 PM EDT
Nautical Twilight 5:46 AM EDT 9:07 PM EDT
Astronomical Twilight 5:14 AM EDT 9:39 PM EDT
Moon 2:11 AM EDT (5/13) 2:04 PM EDT (5/13)
Length of Visible Light 14h 20m
Length of Day
13h 29m
Last Quarter, 42% of the Moon is Illuminated
May 13
Last Quarter
May 20
New
May 28
First Quarter
Jun 4
Full
Jun 11
Last Quarter

Hourly Weather History & Observations

Time (EDT) Temp. Heat Index Dew Point Humidity Pressure Visibility Wind Dir Wind Speed Gust Speed Precip Events Conditions
12:53 AM 75.0 °F - 64.9 °F 71% 30.13 in 10.0 mi ESE 16.1 mph - N/A   Clear
1:53 AM 75.0 °F - 64.0 °F 69% 30.12 in 10.0 mi ESE 17.3 mph - N/A   Clear
2:53 AM 73.9 °F - 64.0 °F 71% 30.12 in 10.0 mi ESE 17.3 mph - N/A   Clear
3:53 AM 73.9 °F - 64.0 °F 71% 30.12 in 10.0 mi SE 16.1 mph - N/A   Scattered Clouds
4:53 AM 73.9 °F - 64.0 °F 71% 30.11 in 10.0 mi SE 16.1 mph - N/A   Mostly Cloudy
5:53 AM 73.9 °F - 64.9 °F 73% 30.12 in 10.0 mi SE 15.0 mph - N/A   Overcast
6:53 AM 73.9 °F - 64.9 °F 73% 30.11 in 10.0 mi ESE 15.0 mph - N/A   Scattered Clouds
7:53 AM 73.9 °F - 66.0 °F 76% 30.12 in 10.0 mi SE 18.4 mph - N/A   Clear
8:53 AM 75.0 °F - 66.9 °F 76% 30.12 in 10.0 mi SE 17.3 mph - N/A   Clear
9:53 AM 77.0 °F - 66.9 °F 71% 30.12 in 10.0 mi SE 12.7 mph - N/A   Clear
11:53 AM 80.1 °F 82.1 °F 66.0 °F 62% 30.10 in 10.0 mi SSE 11.5 mph - N/A   Clear
1:53 PM 84.9 °F 87.6 °F 66.9 °F 55% 30.07 in 10.0 mi East 6.9 mph - N/A   Clear
2:53 PM 84.0 °F 87.0 °F 68.0 °F 58% 30.05 in 10.0 mi ENE 4.6 mph - N/A   Clear
3:53 PM 84.9 °F 87.6 °F 66.9 °F 55% 30.04 in 10.0 mi NE 4.6 mph - N/A   Clear
4:53 PM 84.0 °F 85.8 °F 64.9 °F 53% 30.01 in 10.0 mi Calm Calm - N/A   Scattered Clouds
5:53 PM 82.0 °F 85.9 °F 70.0 °F 67% 30.01 in 10.0 mi WNW 9.2 mph - N/A   Mostly Cloudy
6:53 PM 81.0 °F 84.4 °F 70.0 °F 69% 30.01 in 10.0 mi WNW 9.2 mph - N/A   Clear
7:53 PM 80.1 °F 83.2 °F 70.0 °F 71% 30.01 in 10.0 mi NW 4.6 mph - N/A   Clear
8:53 PM 79.0 °F - 70.0 °F 74% 30.03 in 10.0 mi North 6.9 mph - N/A   Clear
9:53 PM 79.0 °F - 71.1 °F 77% 30.05 in 10.0 mi NNW 6.9 mph - N/A   Clear
10:53 PM 79.0 °F - 71.1 °F 77% 30.06 in 10.0 mi North 6.9 mph - N/A   Clear
11:53 PM 78.1 °F - 71.1 °F 79% 30.05 in 10.0 mi NNW 5.8 mph - N/A   Clear